This demonstration page uses our WeatherBlox Daily Observations layout. Learn more.

38.88101, -77.10428

Hourly Observations for August 12, 2018

Temp ( °F °C ) Dew Point ( °F °C ) Humidity (%) Winds ( mph kmh ) Pressure ( in mb ) Visibility ( mi km ) Precip ( " mm )
12:52 am 00:52 Mostly Cloudy 77 25 71 21.7 82 82 Calm 29.95 1014 10 16.0934 0 0
1:52 am 01:52 Mostly Cloudy 76 24.4 71 21.7 85 85 SE 3 6 29.95 1014 10 16.0934 0 0
2:52 am 02:52 Mostly Cloudy 76 24.4 72 22.2 88 88 S 7 11 29.95 1014 10 16.0934 0 0
3:06 am 03:06 Mostly Cloudy 76 24.4 72 22.2 88 88 S 3 6 29.94 1014 10 16.0934 0 0
3:43 am 03:43 Mostly Cloudy 76 24.4 70 21.1 82 82 Calm 29.94 1014 10 16.0934 0 0
3:52 am 03:52 Mostly Cloudy 76 24.4 70 21.1 82 82 Calm 29.95 1014 10 16.0934 0 0
4:18 am 04:18 Mostly Cloudy 75 23.9 70 21.1 84 84 N 5 7 29.97 1015 10 16.0934 0 0
4:52 am 04:52 Mostly Cloudy 76 24.4 70 21.1 82 82 N 3 6 29.96 1015 10 16.0934 0 0
5:52 am 05:52 Mostly Cloudy 75 23.9 71 21.7 88 88 ENE 8 13 29.96 1015 10 16.0934 0 0
6:52 am 06:52 Mostly Cloudy 75 23.9 70 21.1 84 84 NE 8 13 29.99 1016 10 16.0934 0 0
6:59 am 06:59 Mostly Cloudy 75 23.9 70 21.1 84 84 NNE 8 13 30 1016 10 16.0934 0 0
7:52 am 07:52 Mostly Cloudy 75 23.9 70 21.1 84 84 NE 7 11 30.01 1016 10 16.0934 0 0
8:52 am 08:52 Mostly Cloudy 78 25.6 71 21.7 79 79 NE 8 13 30.02 1017 10 16.0934 0 0
9:52 am 09:52 Mostly Cloudy 79 26.1 70 21.1 74 74 NNE 5 7 30.03 1017 10 16.0934 0 0
10:52 am 10:52 Mostly Cloudy 81 27.2 70 21.1 69 69 N 8 13 30.04 1017 10 16.0934 0 0
11:52 am 11:52 Mostly Cloudy 82 27.8 70 21.1 67 67 NNE 5 7 30.05 1018 10 16.0934 0 0
12:49 pm 12:49 Mostly Cloudy 82 28 70 21 66 66 NW 5 7 30.03 1017 10 16.0934 0 0
12:52 pm 12:52 Mostly Cloudy 84 28.9 71 21.7 65 65 VRB 7 11 30.04 1017 10 16.0934 0 0
1:52 pm 13:52 Mostly Cloudy 86 30 70 21.1 59 59 N 7 11 30.02 1017 10 16.0934 0 0
1:59 pm 13:59 Sunny 86 30 70 21.1 59 59 VRB 6 9 30.03 1017 10 16.0934 0 0
2:52 pm 14:52 Mostly Cloudy 85 29.4 70 21.1 61 61 NNW 9 15 30 1016 10 16.0934 0 0
3:52 pm 15:52 Cloudy with Light Rain 84 28.9 70 21.1 63 63 NNW 8 13 29.99 1016 10 16.0934 0 0.0254
4:17 pm 16:17 Cloudy with Heavy Rain 80 26.7 71 21.7 74 74 N 8 13 30 1016 3 4.82802 0.04 1.016
4:19 pm 16:19 Mostly Cloudy with Heavy Rain 80 26.7 71 21.7 74 74 N 5 7 30 1016 2.5 4.02335 0.06 1.524
4:25 pm 16:25 Cloudy with Heavy Thunderstorms 79 26.1 71 21.7 77 77 N 6 9 30 1016 2.5 4.02335 0.11 2.794
4:27 pm 16:27 Cloudy with Thunderstorms 79 26.1 71 21.7 77 77 N 6 9 30 1016 3 4.82802 0.11 2.794
4:35 pm 16:35 Cloudy with Light Thunderstorms 80 26.7 70 21.1 71 71 E 6 9 30 1016 9 14.48406 0.11 2.794
4:52 pm 16:52 Cloudy with Light Thunderstorms 79 26.1 72 22.2 79 79 Calm 30 1016 8 12.87472 0.11 2.794
4:58 pm 16:58 Cloudy with Thunderstorms 79 26.1 70 21.1 74 74 VRB 3 6 30 1016 3 4.82802 0.02 0.508
5:00 pm 17:00 Cloudy with Heavy Thunderstorms 79 26.1 70 21.1 74 74 VRB 3 6 30 1016 2.5 4.02335 0.05 1.27
5:09 pm 17:09 Cloudy with Thunderstorms 79 26.1 70 21.1 74 74 Calm 30 1016 5 8.0467 0.08 2.032
5:16 pm 17:16 Cloudy with Thunderstorms 78 25.6 71 21.7 79 79 Calm 30.03 1017 6 9.65604 0.09 2.286
5:18 pm 17:18 Cloudy with Light Thunderstorms 78 25.6 71 21.7 79 79 Calm 30.03 1017 6 9.65604 0.09 2.286
5:25 pm 17:25 Cloudy with Thunderstorms 78 25.6 71 21.7 79 79 ENE 12 19 30.03 1017 6 9.65604 0.1 2.54
5:28 pm 17:28 Cloudy with Thunderstorms 77 25 72 22.2 85 85 E 9 15 30.03 1017 5 8.0467 0.11 2.794
5:37 pm 17:37 Mostly Cloudy with Thunderstorms 75 23.9 70 21.1 84 84 SE 13 20 30.03 1017 6 9.65604 0.14 3.556
5:52 pm 17:52 Cloudy with Thunderstorms 74 23.3 67 19.4 79 79 E 9 15 30.01 1016 7 11.26538 0.16 4.064
6:17 pm 18:17 Cloudy with Nearby Thunderstorms 76 24.4 69 20.6 79 79 ENE 7 11 30 1016 8 12.87472 0.02 0.508
6:38 pm 18:38 Cloudy with Light Thunderstorms 75 23.9 69 20.6 82 82 S 9 15 30 1016 7 11.26538 0.06 1.524
6:52 pm 18:52 Cloudy with Light Rain 75 23.9 69 20.6 82 82 SSE 12 19 29.98 1015 9 14.48406 0.07 1.778
7:52 pm 19:52 Cloudy with Light Rain 77 25 70 21.1 79 79 Calm 30 1016 10 16.0934 0.02 0.508
8:52 pm 20:52 Mostly Cloudy with Light Rain 77 25 72 22.2 85 85 E 5 7 30.01 1016 10 16.0934 0 0.0254
9:52 pm 21:52 Mostly Cloudy 77 25 70 21.1 79 79 NW 8 13 30.03 1017 9 14.48406 0 0.0254
10:52 pm 22:52 Cloudy 76 24.4 71 21.7 85 85 WNW 3 6 30.02 1017 10 16.0934 0 0
11:52 pm 23:52 Cloudy 76 24.4 71 21.7 85 85 Calm 30.01 1016 10 16.0934 0 0

Powered by AerisWeather